Wright-Patt AFB, OH

1:38 AM EST on February 23, 2018 (GMT -0500)
Wright-Patterson Air Force Base

Weather History for KFFO - June, 2013

Change the Weather History Date:

Sunday, June 16, 2013

  Actual Average Record
Temperature  
Mean Temperature 72 °F -  
Max Temperature 78 °F 78 °F 89 °F (2012)
Min Temperature 66 °F 58 °F 50 °F (1999)
Cooling Degree Days 7    
Growing Degree Days 22 (Base 50)    
Moisture  
Dew Point 64 °F    
Average Humidity 78    
Maximum Humidity 90    
Minimum Humidity 62    
Precipitation  
Precipitation 0.15 in - - ()
Sea Level Pressure  
Sea Level Pressure 29.98 in    
Wind  
Wind Speed 8 mph (SW)    
Max Wind Speed 16 mph    
Max Gust Speed 23 mph    
Visibility 10 miles    
Events Rain    
Averages and records for this station are not official NWS values.
T = Trace of Precipitation, MM = Missing Value Source: NWS Daily Summary

Daily Weather History Graph

Daily Weather History Graph

Search for Another Location

Airport or City:

Trip Planner

Search our weather history database for the weather conditions in past years. The results will help you decide how hot, cold, wet, or windy it might be!

Date:

Astronomy

Jun. 16, 2013 Rise Set
Actual Time 6:07 AM EDT 9:06 PM EDT
Civil Twilight 5:34 AM EDT 9:39 PM EDT
Nautical Twilight 4:53 AM EDT 10:20 PM EDT
Astronomical Twilight 4:05 AM EDT 11:09 PM EDT
Moon 1:41 PM EDT (6/16) 1:11 AM EDT (6/16)
Length of Visible Light 16h 04m
Length of Day
14h 59m
Waxing Crescent, 49% of the Moon is Illuminated
Jun 16
Waxing Crescent
Jun 16
First Quarter
Jun 23
Full
Jun 30
Last Quarter
Jul 8
New

Hourly Weather History & Observations

Time (EDT) Temp. Dew Point Humidity Pressure Visibility Wind Dir Wind Speed Gust Speed Precip Events Conditions
12:58 AM 69.3 °F 60.6 °F 74% 29.96 in 10.0 mi WSW 2.3 mph - N/A   Mostly Cloudy
1:58 AM 68.9 °F 60.6 °F 75% 29.96 in 10.0 mi SW 4.6 mph - N/A   Mostly Cloudy
2:58 AM 67.8 °F 61.0 °F 79% 29.96 in 10.0 mi WSW 4.6 mph - N/A   Scattered Clouds
3:58 AM 71.8 °F 61.5 °F 70% 29.94 in 10.0 mi SW 10.4 mph - N/A   Overcast
4:58 AM 72.3 °F 60.8 °F 67% 29.95 in 10.0 mi West 10.4 mph - N/A   Overcast
5:58 AM 70.9 °F 62.1 °F 74% 29.94 in 10.0 mi South 4.6 mph - N/A   Overcast
6:02 AM 69.8 °F 62.6 °F 78% 29.95 in 10.0 mi South 4.6 mph - N/A Rain Light Rain
6:58 AM 70.5 °F 62.8 °F 76% 29.96 in 10.0 mi Calm Calm - 0.00 in Rain Light Rain
7:45 AM 69.8 °F 64.4 °F 83% 29.99 in 6.0 mi South 5.8 mph - N/A Rain Light Rain Showers
7:58 AM 68.7 °F 64.9 °F 88% 30.00 in 7.0 mi West 4.6 mph - 0.01 in Rain Light Rain Showers
8:58 AM 67.6 °F 63.5 °F 87% 30.00 in 4.0 mi SW 12.7 mph - 0.09 in Rain Rain
9:36 AM 68.0 °F 64.4 °F 88% 29.99 in 10.0 mi SSW 10.4 mph - N/A   Overcast
9:58 AM 67.8 °F 64.4 °F 89% 29.99 in 10.0 mi SSW 11.5 mph - 0.04 in   Overcast
10:58 AM 69.1 °F 64.4 °F 85% 30.00 in 10.0 mi SW 12.7 mph - N/A   Overcast
11:58 AM 70.7 °F 64.4 °F 80% 30.00 in 10.0 mi SW 12.7 mph - N/A   Overcast
12:44 PM 71.6 °F 64.4 °F 78% 29.99 in 10.0 mi SW 15.0 mph - N/A Rain Light Rain
12:58 PM 71.6 °F 64.4 °F 78% 29.99 in 10.0 mi SW 15.0 mph - 0.00 in Rain Light Rain
1:04 PM 71.6 °F 64.4 °F 78% 29.99 in 10.0 mi SW 16.1 mph - N/A Rain Light Rain
1:11 PM 71.6 °F 62.6 °F 73% 29.99 in 10.0 mi SW 15.0 mph - N/A   Overcast
1:49 PM 71.6 °F 64.4 °F 78% 29.99 in 10.0 mi SW 15.0 mph - N/A Rain Light Rain
1:58 PM 71.2 °F 65.1 °F 81% 30.00 in 10.0 mi SSW 12.7 mph - 0.00 in Rain Light Rain
2:17 PM 69.8 °F 64.4 °F 83% 29.99 in 10.0 mi SSW 16.1 mph - N/A   Light Drizzle
2:33 PM 69.8 °F 64.4 °F 83% 29.99 in 10.0 mi SSW 12.7 mph - N/A   Mostly Cloudy
2:58 PM 72.7 °F 65.1 °F 77% 29.99 in 10.0 mi SSW 15.0 mph - 0.01 in   Mostly Cloudy
3:58 PM 77.0 °F 64.2 °F 65% 29.97 in 10.0 mi SW 13.8 mph - N/A   Mostly Cloudy
4:58 PM 78.4 °F 64.6 °F 62% 29.96 in 10.0 mi WSW 12.7 mph 23.0 mph N/A   Mostly Cloudy
5:58 PM 76.8 °F 64.2 °F 65% 29.96 in 10.0 mi SW 12.7 mph - N/A   Overcast
6:58 PM 76.3 °F 64.2 °F 66% 29.96 in 10.0 mi SW 13.8 mph - N/A   Mostly Cloudy
7:58 PM 73.9 °F 64.0 °F 71% 29.96 in 10.0 mi SSW 10.4 mph - N/A   Mostly Cloudy
8:58 PM 72.3 °F 64.4 °F 76% 29.96 in 10.0 mi SSW 6.9 mph - N/A   Mostly Cloudy
9:58 PM 68.4 °F 63.3 °F 84% 29.96 in 10.0 mi South 6.9 mph - N/A   Scattered Clouds
10:58 PM 66.7 °F 62.8 °F 87% 29.98 in 10.0 mi SSW 5.8 mph - N/A   Partly Cloudy
11:58 PM 66.7 °F 63.7 °F 90% 29.97 in 10.0 mi SSW 8.1 mph - N/A   Partly Cloudy